Météo par heure à Jupiter

Ce jour, 20 Juin, Dimanche

Heure Température Précipitation Vent Pression Humidité
00:00 +29°C° 0 mm 4 m/s 763 mmHg 87%
01:00 +28°C° 0 mm 4 m/s 763 mmHg 89%
02:00 +28°C° 0.2 mm 4 m/s 762 mmHg 89%
03:00 +28°C° 0.2 mm 4 m/s 762 mmHg 89%
04:00 +28°C° 0.2 mm 4 m/s 762 mmHg 89%
05:00 +28°C° 0.3 mm 4 m/s 762 mmHg 88%
06:00 +29°C° 0.3 mm 4 m/s 763 mmHg 87%
07:00 +29°C° 0 mm 4 m/s 763 mmHg 88%
08:00 +30°C° 0.5 mm 4 m/s 763 mmHg 81%
09:00 +31°C° 0.5 mm 3 m/s 764 mmHg 74%
10:00 +33°C° 0.5 mm 3 m/s 764 mmHg 67%
11:00 +34°C° 0.1 mm 4 m/s 763 mmHg 62%
12:00 +35°C° 0.1 mm 5 m/s 763 mmHg 56%
13:00 +36°C° 0.1 mm 5 m/s 762 mmHg 51%
14:00 +36°C° 0.1 mm 5 m/s 762 mmHg 54%
15:00 +35°C° 0.1 mm 5 m/s 762 mmHg 57%
16:00 +34°C° 0.1 mm 6 m/s 762 mmHg 60%
17:00 +34°C° 0.1 mm 5 m/s 762 mmHg 63%
18:00 +33°C° 0.1 mm 5 m/s 762 mmHg 66%
19:00 +32°C° 0.1 mm 5 m/s 762 mmHg 69%
20:00 +30°C° 0.8 mm 4 m/s 762 mmHg 73%
21:00 +30°C° 0.8 mm 3 m/s 763 mmHg 78%
22:00 +29°C° 0.8 mm 2 m/s 763 mmHg 82%
23:00 +29°C° 0.2 mm 2 m/s 763 mmHg 82%

Demain, 21 Juin, Lundi

Heure Température Précipitation Vent Pression Humidité
00:00 +28°C° 0.2 mm 3 m/s 763 mmHg 83%
01:00 +28°C° 0.2 mm 3 m/s 763 mmHg 83%
02:00 +28°C° 0.1 mm 3 m/s 763 mmHg 84%
03:00 +27°C° 0.1 mm 3 m/s 763 mmHg 85%
04:00 +27°C° 0.1 mm 2 m/s 763 mmHg 85%
05:00 +28°C° 0 mm 3 m/s 763 mmHg 85%
06:00 +28°C° 0 mm 3 m/s 763 mmHg 85%
07:00 +28°C° 0 mm 3 m/s 763 mmHg 85%
08:00 +30°C° 0 mm 3 m/s 763 mmHg 79%
09:00 +31°C° 0 mm 3 m/s 764 mmHg 72%
10:00 +33°C° 0 mm 4 m/s 764 mmHg 66%
11:00 +34°C° 0.2 mm 4 m/s 764 mmHg 63%
12:00 +34°C° 0.2 mm 5 m/s 763 mmHg 60%
13:00 +34°C° 0.2 mm 5 m/s 763 mmHg 58%
14:00 +34°C° 0.1 mm 5 m/s 763 mmHg 58%
15:00 +34°C° 0.1 mm 6 m/s 762 mmHg 57%
16:00 +34°C° 0.1 mm 6 m/s 762 mmHg 57%
17:00 +33°C° 0 mm 6 m/s 762 mmHg 60%
18:00 +32°C° 0 mm 5 m/s 762 mmHg 63%
19:00 +30°C° 0 mm 5 m/s 762 mmHg 66%
20:00 +29°C° 0.3 mm 4 m/s 763 mmHg 72%
21:00 +28°C° 0.3 mm 4 m/s 763 mmHg 78%
22:00 +27°C° 0.3 mm 3 m/s 764 mmHg 84%
23:00 +27°C° 0.1 mm 4 m/s 764 mmHg 85%

Après-demain, 22 Juin, Mardi

Heure Température Précipitation Vent Pression Humidité
00:00 +27°C° 0.1 mm 4 m/s 763 mmHg 86%
01:00 +26°C° 0.1 mm 4 m/s 763 mmHg 87%
02:00 +27°C° 0 mm 5 m/s 763 mmHg 88%
03:00 +27°C° 0 mm 5 m/s 762 mmHg 88%
04:00 +27°C° 0 mm 5 m/s 762 mmHg 89%
05:00 +28°C° 0 mm 5 m/s 762 mmHg 87%
06:00 +28°C° 0 mm 4 m/s 763 mmHg 86%
07:00 +29°C° 0 mm 4 m/s 763 mmHg 84%
08:00 +30°C° 0 mm 4 m/s 763 mmHg 76%
09:00 +32°C° 0 mm 4 m/s 763 mmHg 68%
10:00 +34°C° 0 mm 5 m/s 763 mmHg 60%
11:00 +34°C° 0 mm 5 m/s 763 mmHg 58%
12:00 +35°C° 0 mm 6 m/s 763 mmHg 55%
13:00 +35°C° 0 mm 6 m/s 763 mmHg 52%
14:00 +35°C° 0 mm 6 m/s 762 mmHg 53%
15:00 +35°C° 0 mm 7 m/s 762 mmHg 54%
16:00 +35°C° 0 mm 7 m/s 762 mmHg 55%
17:00 +34°C° 0 mm 7 m/s 761 mmHg 61%
18:00 +33°C° 0 mm 7 m/s 761 mmHg 66%
19:00 +30°C° 0 mm 7 m/s 761 mmHg 72%
20:00 +28°C° 1.5 mm 7 m/s 762 mmHg 76%
21:00 +27°C° 1.5 mm 7 m/s 764 mmHg 81%
22:00 +24°C° 1.5 mm 7 m/s 765 mmHg 85%
23:00 +24°C° 0.1 mm 6 m/s 765 mmHg 83%

23 Juin, Mercredi

Heure Température Précipitation Vent Pression Humidité
00:00 +25°C° 0.1 mm 5 m/s 764 mmHg 81%
01:00 +25°C° 0.1 mm 4 m/s 763 mmHg 79%
02:00 +26°C° 0 mm 4 m/s 763 mmHg 80%
03:00 +26°C° 0 mm 4 m/s 763 mmHg 82%
04:00 +26°C° 0 mm 4 m/s 763 mmHg 84%
05:00 +27°C° 0 mm 3 m/s 763 mmHg 82%
06:00 +27°C° 0 mm 3 m/s 763 mmHg 81%
07:00 +28°C° 0 mm 3 m/s 763 mmHg 80%
08:00 +29°C° 0 mm 3 m/s 764 mmHg 75%
09:00 +30°C° 0 mm 3 m/s 764 mmHg 70%
10:00 +33°C° 0 mm 3 m/s 764 mmHg 65%
11:00 +33°C° 0.2 mm 3 m/s 764 mmHg 63%
12:00 +33°C° 0.2 mm 4 m/s 764 mmHg 62%
13:00 +34°C° 0.2 mm 4 m/s 764 mmHg 61%
14:00 +33°C° 0.4 mm 4 m/s 764 mmHg 62%
15:00 +33°C° 0.4 mm 4 m/s 763 mmHg 63%
16:00 +32°C° 0.4 mm 4 m/s 763 mmHg 65%
17:00 +32°C° 0.5 mm 4 m/s 763 mmHg 69%
18:00 +30°C° 0.5 mm 4 m/s 764 mmHg 74%
19:00 +29°C° 0.5 mm 3 m/s 764 mmHg 78%
20:00 +28°C° 1.4 mm 3 m/s 764 mmHg 82%
21:00 +27°C° 1.4 mm 3 m/s 765 mmHg 85%
22:00 +26°C° 1.4 mm 3 m/s 765 mmHg 88%
23:00 +26°C° 0.8 mm 2 m/s 765 mmHg 87%

24 Juin, Jeudi

Heure Température Précipitation Vent Pression Humidité
00:00 +26°C° 0.8 mm 2 m/s 764 mmHg 87%
01:00 +26°C° 0.8 mm 1 m/s 764 mmHg 86%
02:00 +26°C° 0 mm 2 m/s 764 mmHg 87%
03:00 +26°C° 0 mm 3 m/s 763 mmHg 87%
04:00 +27°C° 0 mm 4 m/s 763 mmHg 87%
05:00 +27°C° 0.7 mm 4 m/s 763 mmHg 87%
06:00 +28°C° 0.7 mm 4 m/s 763 mmHg 86%
07:00 +28°C° 0.7 mm 4 m/s 764 mmHg 86%
08:00 +29°C° 0.7 mm 4 m/s 764 mmHg 81%
09:00 +29°C° 0.7 mm 4 m/s 764 mmHg 76%
10:00 +30°C° 0.7 mm 4 m/s 764 mmHg 72%
11:00 +30°C° 0.8 mm 4 m/s 764 mmHg 69%
12:00 +32°C° 0.8 mm 4 m/s 764 mmHg 67%
13:00 +32°C° 0.8 mm 5 m/s 764 mmHg 65%
14:00 +32°C° 0.7 mm 5 m/s 764 mmHg 66%
15:00 +30°C° 0.7 mm 5 m/s 764 mmHg 67%
16:00 +30°C° 0.7 mm 4 m/s 763 mmHg 68%
17:00 +30°C° 0 mm 4 m/s 763 mmHg 71%
18:00 +29°C° 0 mm 4 m/s 763 mmHg 74%
19:00 +29°C° 0 mm 4 m/s 763 mmHg 77%
20:00 +29°C° 0 mm 4 m/s 764 mmHg 78%
21:00 +28°C° 0 mm 4 m/s 764 mmHg 78%
22:00 +28°C° 0 mm 4 m/s 764 mmHg 79%
23:00 +28°C° 0.1 mm 4 m/s 764 mmHg 80%

25 Juin, Vendredi

Heure Température Précipitation Vent Pression Humidité
00:00 +28°C° 0.1 mm 5 m/s 763 mmHg 81%
01:00 +28°C° 0.1 mm 5 m/s 763 mmHg 81%
02:00 +28°C° 0.1 mm 4 m/s 763 mmHg 82%
03:00 +28°C° 0.1 mm 4 m/s 763 mmHg 83%
04:00 +27°C° 0.1 mm 4 m/s 762 mmHg 84%
05:00 +28°C° 0.9 mm 4 m/s 763 mmHg 84%
06:00 +28°C° 0.9 mm 4 m/s 763 mmHg 84%
07:00 +28°C° 0.9 mm 3 m/s 763 mmHg 84%
08:00 +29°C° 0.3 mm 4 m/s 763 mmHg 78%
09:00 +30°C° 0.3 mm 4 m/s 763 mmHg 73%
10:00 +32°C° 0.3 mm 4 m/s 764 mmHg 67%
11:00 +32°C° 0.2 mm 4 m/s 763 mmHg 64%
12:00 +33°C° 0.2 mm 5 m/s 763 mmHg 62%
13:00 +33°C° 0.2 mm 5 m/s 763 mmHg 60%
14:00 +33°C° 0.2 mm 5 m/s 763 mmHg 61%
15:00 +32°C° 0.2 mm 4 m/s 762 mmHg 62%
16:00 +32°C° 0.2 mm 4 m/s 762 mmHg 63%
17:00 +30°C° 0 mm 4 m/s 762 mmHg 67%
18:00 +30°C° 0 mm 4 m/s 762 mmHg 70%
19:00 +29°C° 0 mm 4 m/s 762 mmHg 73%
20:00 +29°C° 0.1 mm 4 m/s 763 mmHg 76%
21:00 +28°C° 0.1 mm 4 m/s 763 mmHg 79%
22:00 +28°C° 0.1 mm 4 m/s 763 mmHg 81%
23:00 +28°C° 0.1 mm 4 m/s 762 mmHg 81%
Voir plus

Nous avons besoin de votre consentement

Meteoprog et ses fournisseurs de services peuvent stocker et accéder à des données personnelles telles que des cookies, des identifiants d'appareils ou d'autres technologies similaires sur votre appareil et traiter ces données pour personnaliser le contenu et les publicités, ainsi que pour fournir des fonctionnalités de médias sociaux et analyser le trafic.

  • Stocker et/ou accéder à des informations sur votre appareil

    Des cookies, des identifiants d'appareils ou d'autres informations peuvent être stockés ou accessibles sur votre appareil aux fins indiquées ci-dessus.

  • Annonces et contenus personnalisés, mesure des annonces et des contenus, connaissance de l'audience et développement de produits

    Les annonces et le contenu peuvent être personnalisés en fonction d'un profil. D'autres données peuvent être ajoutées pour mieux personnaliser les annonces et le contenu. Les performances des publicités et du contenu peuvent être mesurées. Il est possible d'obtenir des informations sur le public qui a vu les publicités et le contenu. Ces données peuvent être utilisées pour développer ou améliorer l'expérience de l'utilisateur, les systèmes et les logiciels.

En cliquant sur "J'accepte", vous autorisez l'utilisation de cookies, des identifiants d'appareils, des balises web ou d'autres technologies similaires. Vos paramètres peuvent être modifiés dans le navigateur de votre appareil.

Dans certains cas, des intérêts légitimes peuvent être invoqués plutôt qu'un consentement. Vous pouvez en savoir plus à ce sujet dans notre Politique de confidentialité et de cookies.